Location: Clover
(42.5131°N, 114.6874°W)
Time: 13:41:20
(UTC+00:00)

Explorer 7 - Pass Details

Date: 10 December 2025
Orbit: 433 x 550 km, 50.2° (Epoch: 13 January)

Event Time Altitude Azimuth Distance (km) Brightness Sun altitude
Rises 02:25:44 0° 239° (WSW) 2,443 11.2 -25.0°
Reaches altitude 10° 02:27:52 10° 240° (WSW) 1,560 10.0 -25.4°
Enters shadow 02:29:55 33° 242° (WSW) 766 8.0 -25.8°
